Regional Weather Roundup
Issued by NWS Binghamton, NY

Home | Current Version | Previous Version | Text Only | Print | Product List | Glossary On
Versions: 1 2 3 4 5 6 7 8 9 10 11 12 13 14 15 16 17 18 19 20 21 22 23 24 25 26 27 28
000
ASUS41 KBGM 231610
RWRBGM

REGIONAL WEATHER ROUNDUP
NATIONAL WEATHER SERVICE BINGHAMTON NY
1200 PM EDT MON APR 23 2018

Note: "fair" indicates few or no clouds below 12,000 feet with no
significant weather and/or obstructions to visibility.

* = Station(s) that does not report precipitation, such as rain,
snow, etc, also no thunder or fog.

NYZ009-015>018-022>025-036-037-044>046-055>057-062-231700
...Central New York...

CITY           SKY/WX    TMP DP  RH WIND       PRES   REMARKS
Binghamton     FAIR      59  20  22 SW10      30.41
Cortland       FAIR      59  21  23 S5        30.42F
Dansville      FAIR      66  22  18 S13G18    30.37
Elmira         FAIR      63  26  24 N6        30.40
Ithaca         FAIR      62  21  20 S5        30.42
Monticello     FAIR      58  16  19 SE6       30.46
Penn Yan       FAIR      63  21  20 SW9       30.40
Rome           FAIR      60  13  15 S6        30.45
Sidney         SUNNY     61  16  17 SW3       30.43F
Syracuse       FAIR      60  23  24 VRB3      30.42
$$

PAZ038>040-043-044-047-048-072-231700
...Northeast Pennsylvania...

CITY           SKY/WX    TMP DP  RH WIND       PRES   REMARKS
Hazleton       FAIR      64  18  16 CALM      30.46S
Scranton       FAIR      63  23  21 CALM      30.42
$$
&&
KEY
WCI = Wind Chill Index
VSB = Visibility
HX  = Heat Index
$$




USA.gov is the U.S. government's official web portal to all federal, state and local government web resources and services.